This demonstration page uses our WeatherBlox Daily Observations layout. Learn more.

Left ArrowRight Arrow

Hourly Observations for May 4, 2021

Temp ( °F °C ) Dew Point ( °F °C ) Humidity (%) Winds ( mph kmh ) Pressure ( in mb ) Visibility ( mi km ) Precip ( " mm )
12:01 am 00:01 Clear with Mist and Fog 61 16.1 60 15.6 97 97 N N/A 29.73 1007 2 3 N/A
12:08 am 00:08 Clear with Mist and Fog 61 16.1 60 15.6 97 97 ESE 3 6 29.72 1007 2 2 N/A
12:10 am 00:10 Clear with Mist and Fog 61 16.1 60 15.6 97 97 ESE 3 6 29.72 1007 3 5 N/A
12:53 am 00:53 Clear 65 18.3 62 16.7 90 90 N N/A 29.70 1006 10 16 N/A
1:53 am 01:53 Mostly Cloudy 64 17.8 61 16.1 90 90 N N/A 29.72 1006 10 16 N/A
2:53 am 02:53 Partly Cloudy 63 17.2 62 16.7 97 97 N N/A 29.71 1006 9 14 N/A
3:53 am 03:53 Partly Cloudy 61 16.1 60 15.6 97 97 N N/A 29.70 1006 7 11 N/A
4:53 am 04:53 Mostly Cloudy 62 16.7 61 16.1 96 96 ENE 3 6 29.67 1005 8 13 N/A
5:53 am 05:53 Mostly Cloudy 62 16.7 61 16.1 96 96 N N/A 29.69 1006 7 11 N/A
6:05 am 06:05 Mostly Cloudy with Light Rain 62 16.7 61 16.1 96 96 N N/A 29.70 1006 6 10 0.00 0.00
6:53 am 06:53 Mostly Cloudy with Mist and Fog 63 17.2 62 16.7 97 97 N N/A 29.72 1006 4 6 0.00 0.00
7:20 am 07:20 Partly Cloudy with Mist and Fog 64 17.8 63 17.2 96 96 SE 3 6 29.70 1006 6 10 N/A
7:53 am 07:53 Partly Cloudy 66 18.9 64 17.8 93 93 N N/A 29.70 1006 8 13 N/A
8:12 am 08:12 Mostly Cloudy 66 18.9 64 17.8 93 93 N N/A 29.72 1006 7 11 N/A
8:53 am 08:53 Cloudy 67 19.4 65 18.3 93 93 N N/A 29.73 1007 10 16 N/A
9:36 am 09:36 Cloudy with Nearby Thunderstorms 67 19.4 65 18.3 93 93 N N/A 29.75 1007 3 4 0.02 0.51
9:46 am 09:46 Cloudy with Heavy Thunderstorms 67 19.4 65 18.3 93 93 S 8 13 29.76 1008 2 3 0.10 2.54
9:51 am 09:51 Cloudy with Heavy Thunderstorms 66 19 64 18 94 94 VRB 6 9 29.76 1008 1 2 0.20 5.08
9:53 am 09:53 Cloudy with Heavy Thunderstorms 66 18.9 65 18.3 96 96 VRB 5 7 29.77 1008 1 2 0.20 5.08
10:03 am 10:03 Cloudy with Heavy Thunderstorms 65 18.3 64 17.8 97 97 SW 12 19 29.78 1008 0 0 0.23 5.84
10:10 am 10:10 Cloudy with Heavy Thunderstorms 64 17.8 63 17.2 96 96 SW 13 20 29.79 1009 1 1 0.30 7.62
10:18 am 10:18 Cloudy with Rain 64 17.8 63 17.2 96 96 WSW 7 11 29.79 1009 2 3 0.33 8.38
10:25 am 10:25 Cloudy with Nearby Thunderstorms 64 17.8 63 17.2 96 96 WSW 8 13 29.80 1009 2 3 0.34 8.64
10:31 am 10:31 Cloudy with Nearby Thunderstorms 64 17.8 63 17.2 96 96 WSW 9 15 29.80 1009 3 5 0.35 8.89
10:37 am 10:37 Cloudy with Nearby Thunderstorms 64 17.8 63 17.2 96 96 WSW 9 15 29.81 1009 3 5 0.36 9.14
10:41 am 10:41 Cloudy with Nearby Thunderstorms 64 17.8 63 17.2 96 96 SW 8 13 29.81 1009 3 4 0.38 9.65
10:46 am 10:46 Cloudy with Nearby Thunderstorms 64 17.8 63 17.2 96 96 SW 9 15 29.81 1009 2 3 0.39 9.91
10:48 am 10:48 Cloudy with Rain 64 18 63 17 94 94 SW 7 11 29.81 1009 2 3 0.40 10.16
10:53 am 10:53 Cloudy with Rain 64 17.8 63 17.2 96 96 VRB 7 11 29.81 1010 2 3 0.41 10.41
11:04 am 11:04 Cloudy with Rain 64 17.8 63 17.2 96 96 SW 7 11 29.81 1009 3 4 0.03 0.76
11:15 am 11:15 Cloudy with Light Rain 64 17.8 62 16.7 93 93 VRB 7 11 29.81 1009 3 5 0.05 1.27
11:53 am 11:53 Cloudy with Light Rain 66 18.9 64 17.8 93 93 SSW 3 6 29.78 1008 5 8 0.10 2.54
12:46 pm 12:46 Mostly Cloudy 69 20.6 65 18.3 87 87 WSW 8 13 29.70 1006 10 16 0.00 0.00
12:53 pm 12:53 Mostly Cloudy 69 20.6 65 18.3 87 87 WSW 13 20 29.72 1007 10 16 0.00 0.00
1:20 pm 13:20 Cloudy 68 20 64 17.8 87 87 VRB 7 11 29.73 1007 10 16 N/A
1:41 pm 13:41 Cloudy 68 20 64 17.8 87 87 W 7 11 29.73 1007 10 16 N/A
1:53 pm 13:53 Cloudy 68 20 64 17.8 87 87 VRB 6 9 29.74 1007 10 16 N/A
2:48 pm 14:48 Cloudy 68 20 63 17 83 83 WNW 7 11 29.74 1007 10 16 N/A
2:53 pm 14:53 Cloudy with Light Rain 68 20 63 17.2 84 84 NW 8 13 29.74 1007 9 14 0.00 0.00
3:04 pm 15:04 Cloudy with Heavy Rain 67 19.4 64 17.8 91 91 WNW 3 6 29.74 1007 2 3 0.06 1.52
3:11 pm 15:11 Cloudy with Light Rain 67 19.4 64 17.8 91 91 VRB 3 6 29.75 1007 2 2 0.07 1.78
3:14 pm 15:14 Cloudy with Light Rain 67 19.4 64 17.8 91 91 WNW 3 6 29.74 1007 3 5 0.07 1.78
3:21 pm 15:21 Cloudy 68 20 65 18.3 90 90 NW 3 6 29.74 1007 10 16 0.07 1.78
3:48 pm 15:48 Cloudy with Light Rain 66 19 64 18 94 94 VRB 5 7 29.73 1007 5 8 0.08 2.03
3:51 pm 15:51 Cloudy with Rain 66 19 64 18 94 94 N N/A 29.72 1006 2 2 0.13 3.30
3:53 pm 15:53 Cloudy with Heavy Rain 66 18.9 64 17.8 93 93 N N/A 29.73 1007 1 2 0.15 3.81
4:00 pm 16:00 Cloudy with Heavy Rain 65 18.3 63 17.2 93 93 NNW 8 13 29.73 1007 1 1 0.13 3.30
4:10 pm 16:10 Cloudy with Light Rain 65 18.3 63 17.2 93 93 NNW 7 11 29.72 1006 2 3 0.16 4.06
4:13 pm 16:13 Cloudy with Light Rain 65 18.3 63 17.2 93 93 NNW 7 11 29.73 1007 3 5 0.16 4.06
4:20 pm 16:20 Cloudy with Rain 65 18.3 63 17.2 93 93 NNW 8 13 29.72 1006 2 3 0.18 4.57
4:28 pm 16:28 Mostly Cloudy with Light Rain 67 19.4 64 17.8 91 91 NNW 10 17 29.72 1006 3 5 0.19 4.83
4:40 pm 16:40 Partly Cloudy 68 20 64 17.8 87 87 NNW 8 13 29.72 1006 10 16 0.19 4.83
4:53 pm 16:53 Mostly Sunny 67 19.4 62 16.7 84 84 N 9 15 29.71 1006 10 16 0.19 4.83
5:08 pm 17:08 Mostly Cloudy 66 18.9 62 16.7 87 87 NNW 8 13 29.72 1006 10 16 N/A
5:17 pm 17:17 Cloudy 66 18.9 61 16.1 84 84 NNW 10 17 29.73 1007 10 16 N/A
5:24 pm 17:24 Cloudy 66 18.9 61 16.1 84 84 NNW 10 17 29.73 1007 10 16 N/A
5:53 pm 17:53 Cloudy 64 17.8 60 15.6 87 87 NW 10 17 29.75 1007 10 16 N/A
6:06 pm 18:06 Cloudy with Light Rain 63 17.2 59 15 87 87 NW 10 17 29.76 1008 9 14 0.00 0.00
6:16 pm 18:16 Cloudy with Light Rain 63 17.2 59 15 87 87 NW 7 11 29.77 1008 10 16 0.00 0.00
6:53 pm 18:53 Cloudy 62 16.7 58 14.4 86 86 NW 10 17 29.76 1008 10 16 0.01 0.25
7:26 pm 19:26 Cloudy 61 16.1 57 13.9 87 87 N 7 11 29.77 1008 10 16 N/A
7:53 pm 19:53 Cloudy 60 15.6 55 12.8 84 84 N 13 20 29.77 1008 10 16 N/A
8:04 pm 20:04 Cloudy 60 15.6 55 12.8 84 84 NNW 7 11 29.79 1009 10 16 N/A
8:53 pm 20:53 Cloudy 60 15.6 54 12.2 80 80 N N/A 29.80 1009 10 16 N/A
9:21 pm 21:21 Cloudy 59 15 54 12.2 83 83 NNE 3 6 29.80 1009 10 16 N/A
9:53 pm 21:53 Cloudy 59 15 54 12.2 83 83 N 7 11 29.80 1009 10 16 N/A
10:18 pm 22:18 Cloudy 58 14.4 53 11.7 84 84 N 6 9 29.82 1010 10 16 N/A
10:53 pm 22:53 Cloudy 58 14.4 52 11.1 81 81 NNW 7 11 29.82 1010 10 16 N/A
11:53 pm 23:53 Cloudy 57 13.9 52 11.1 83 83 N 6 9 29.82 1010 10 16 N/A

Powered by AerisWeather